Regional Weather Roundup
Issued by NWS Lake Charles, LA

Current Version | Previous Version | Text Only | Print | Product List | Glossary On
Versions: 1 2 3 4 5 6 7 8 9 10 11 12 13 14 15 16 17 18 19 20 21 22 23 24 25 26 27 28
000
ASUS44 KLCH 160510
RWRLCH
RWRLCH
REGIONAL WEATHER ROUNDUP
NATIONAL WEATHER SERVICE LAKE CHARLES LA
1200 AM CDT WED APR 16 2014

Note: "fair" indicates few or no clouds below 12,000 feet with no
significant weather and/or obstructions to visibility.


ACROSS SOUTHEAST TEXAS

CITY           SKY/WX    TMP DP  RH WIND       PRES   REMARKS
BEAUMONT       CLEAR     46  37  71 NE5       30.18F
BEAUMONT CITY  FAIR      42  39  89 CALM      30.19S
ORANGE         CLEAR     42  41  95 CALM      30.21S
JASPER         CLEAR     39  39  97 CALM      30.21F
$$

ACROSS CENTRAL LOUISIANA

CITY           SKY/WX    TMP DP  RH WIND       PRES   REMARKS
LEESVILLE      CLEAR     42  38  85 CALM      30.19R
FULLERTON      FAIR      44  39  82 CALM      30.18R
ALEXANDRIA INT CLEAR     45  37  73 NE6       30.19S
ESLER FIELD    CLEAR     45  34  65 E3        30.20F
DERIDDER       FAIR      43  39  88 CALM      30.22R
OAKDALE        CLEAR     39  37  95 CALM      30.20S
OPELOUSAS      FAIR      45  33  62 NE7       30.19R
$$

ACROSS SOUTHWEST AND SOUTH CENTRAL LOUISIANA

CITY           SKY/WX    TMP DP  RH WIND       PRES   REMARKS
SULPHUR        CLEAR     43  40  86 N3        30.20S
LAKE CHARLES   CLEAR     46  37  71 E5        30.19R
CHENNAULT INT  CLEAR     45  38  74 CALM      30.20S
CAMERON PHI    CLEAR     48  39  71 E7        30.20S
DEQUINCY       FAIR      40  38  95 CALM      30.19F
JENNINGS       FAIR      46  35  65 E5        30.19S
LAFAYETTE      CLEAR     46  35  65 NE5       30.19S
NEW IBERIA     CLEAR     49  34  56 NE12      30.19S
ABBEVILLE      FAIR      46   0  15 NE3       30.19R
PATTERSON      CLEAR     48  32  53 NE16      30.20S
SALT POINT       N/A     51  37  58 CALM      30.16S
$$

SELECTED SITES ACROSS THE REGION

CITY           SKY/WX    TMP DP  RH WIND       PRES   REMARKS
HOUSTON BUSH   CLEAR     47  36  65 CALM      30.17S
HOUSTON HOBBY  CLEAR     48  36  63 CALM      30.17S
GALVESTON      CLEAR     55  35  47 NE8       30.18F
COLLEGE STAT   CLEAR     46  36  68 CALM      30.16F
CONROE         CLEAR     39  38  96 CALM      30.18F
HUNTSVILLE     CLEAR     44  38  79 CALM      30.17F
LUFKIN         CLEAR     44  37  76 E3        30.18F
SHREVEPORT     CLEAR     42  37  82 CALM      30.18F
MONROE         CLEAR     44  35  70 E5        30.24F
NATCHEZ MS       N/A     41  30  65 NE7       30.21F
BATON ROUGE    CLEAR     46  32  58 NE8       30.20F
N.O. INTL ARPT CLEAR     51  34  52 N21G28    30.17F
SLIDELL        CLEAR     45  35  68 N7        30.18F
$$

MARINE REPORTS

STATION/POSITION TIME  TEMP    WIND        PRES    VSBY  WAVE
                       AIR SEA DIR/SP/G                  HT/PER
                 (UTC) (F)     (DEG/KT/KT) (MB)    (MI)  (FT/S)
BUOY 30 S HIGH I 0500   59 66   60/ 14/ 16 1021.4F         2/ 4
SEA RIM ST PARK  0500   51      60/  7/  7 1022.5F
PORT ARTHUR      0500      66   40/  1/  3 1022.0F
SABINE PASS N    0500   51 64   60/  8/  9 1022.0S
TEXAS POINT      0500   51 64   50/  8/ 10 1022.3F
CALCASIEU PASS   0500   51 63   80/  8/  9 1023.1S
LK CHARLES BEACH 0500   50 66              1023.1F
MARSH ISLAND     NOT AVBL
FRESH WATER LOCK 0500   49 64   10/  5/  7 1022.2R
AMERADA PASS     0500   51 60   20/  7/ 13 1021.3R
$$



USA.gov is the U.S. government's official web portal to all federal, state and local government web resources and services.